Tracking 34717 objects as of 14-Jul-2026
HD Live streaming from Space Station
objects crossing your sky now

TANSTAAFL-2

Track TANSTAAFL-2 now!
10-day predictions
TANSTAAFL-2 is classified as:


NORAD ID: 62378
Int'l Code: 2024-247B
Perigee: 482.3 km
Apogee: 482.9 km
Inclination: 45.0 °
Period: 94.1 minutes
Semi major axis: 6853 km
RCS: Unknown
Launch date: December 21, 2024
Source: United States (US)
Launch site: AIR FORCE WESTERN TEST RANGE (AFWTR)

Uplink (MHz):
Downlink (MHz): 2205.000/2282.500
Beacon (MHz):
Mode: 196k8_BPSK/131k_QPSK
Call sign:
Status: Unknown


Uplink (MHz):
Downlink (MHz): 2205.000/2282.500
Beacon (MHz):
Mode: 196k8_BPSK/131k_QPSK
Call sign:
Status: Unknown

Your satellite tracking list
Your tracking list is empty




NASA's NSSDC Master Catalog

Two Line Element Set (TLE):
1 62378U 24247B   26195.11837130  .00005225  00000-0  18599-3 0  9991
2 62378  44.9872 145.0040 0000440  11.5077 348.5817 15.30119958 87086
Source of the keplerian elements: AFSPC